Home   Weather   Osorno   Past weeks

Flag for Chile Past Weather in Osorno, Chile — Yesterday and Last 2 Weeks

64 °F


Feels Like: 64 °F
Forecast: N/A
Wind: 13 mph from Southeast

Location: Puerto Montt Airport

Current Time: Oct 20, 2016 at 6:36:45 PM

Latest Report: Oct 20, 2016 at 6:00 PM

Visibility: 10 mi

Pressure: 30.07 "Hg

Humidity: 46%

Dew Point: 43 °F

Location of OsornoLocation

Past Weather in Osorno — Graph


Osorno Temperature Yesterday

Maximum temperature yesterday: 68 °F (at 2:00 PM)
Minimum temperature yesterday: 43 °F (at 5:00 AM)
Average temperature yesterday: 55 °F

High & Low Weather Summary for the Past Weeks

High68 °F (Oct 19, 2:00 PM)100% (Oct 8, 6:00 AM)30.33 "Hg (Oct 8, 6:00 AM)
Low34 °F (Oct 9, 4:00 AM)40% (Oct 19, 5:00 PM)29.68 "Hg (Oct 12, 7:00 AM)
Average49 °F81%30.05 "Hg
* Reported Oct 5 5:00 PM — Oct 20 5:00 PM, Osorno, Weather by CustomWeather, © 2016

Note: Actual official high and low records may vary slightly from our data, if they occured in-between our weather recording intervals... More about our weather records


Osorno Weather History for the Previous 24 Hours

Scroll right to see more
Time TempWeatherWind HumidityBarometerVisibility
5:00 PM
Thu, Oct 20
64 °FPassing clouds.12 mph52%30.07 "HgN/A
4:00 PM64 °FPassing clouds.12 mph56%30.09 "HgN/A
3:00 PM63 °FPassing clouds.10 mph68%30.09 "HgN/A
2:00 PM66 °FPassing clouds.8 mph56%30.12 "HgN/A
1:00 PM64 °FSunny.8 mph60%30.12 "Hg10 mi
12:00 PM63 °FSunny.6 mph59%30.12 "Hg10 mi
11:00 AM59 °FSunny.6 mph72%30.15 "Hg10 mi
10:00 AM57 °FSunny.6 mph77%30.15 "Hg10 mi
9:00 AM50 °FSunny.No wind88%30.15 "Hg10 mi
8:00 AM43 °FSunny.1 mph93%30.18 "Hg10 mi
7:00 AM39 °FSunny.No wind93%30.18 "Hg10 mi
6:00 AM39 °FClear.No wind93%30.18 "Hg10 mi
5:00 AM43 °FClear.No wind93%30.18 "Hg10 mi
4:00 AM43 °FClear.No wind93%30.21 "Hg10 mi
2:00 AM45 °FClear.No wind87%30.24 "Hg10 mi
1:00 AM50 °FPassing clouds.3 mph82%30.24 "HgN/A
12:00 AM50 °FClear.6 mph76%30.24 "Hg10 mi
11:00 PM
Wed, Oct 19
52 °FClear.5 mph77%30.24 "Hg10 mi
10:00 PM55 °FClear.6 mph67%30.24 "Hg10 mi
9:00 PM55 °FClear.2 mph77%30.24 "Hg10 mi
8:00 PM61 °FPassing clouds.6 mph59%30.24 "HgN/A
7:00 PM64 °FPassing clouds.8 mph52%30.24 "HgN/A
6:00 PM66 °FPassing clouds.10 mph49%30.24 "HgN/A
Weather by CustomWeather, © 2016

See weather overviewHow to use our weather pages